User: anonymous   Login
Location: Unspecified
(0.0000°N, 0.0000°E)
Time: 05:09:19
(UTC+00:00)
Language:

COSMOS 2468 - Orbit

View from above orbital plane
View from above orbital plane
View from above satellite
View from above satellite

Ground track
Ground track

The orbit data is extracted from the following two-line orbital elements,

1 37154U 10043C   14298.14751618  .00000011  00000-0  11444-4 0  3001
2 37154 082.4662 204.5297 0012607 242.9082 117.0717 12.42889583187293
Epoch (UTC): 25 October 2014 03:32:25
Eccentricity: 0.0012607
inclination: 82.4662°
perigee height: 1484 km
apogee height: 1504 km
right ascension of ascending node: 204.5297°
argument of perigee: 242.9082°
revolutions per day: 12.42889583
mean anomaly at epoch: 117.0717°
orbit number at epoch: 18729

The dashed part of the orbit path shows where the satellite is in the earth's shadow,  

DLR